Regional Weather Roundup
Issued by NWS Newport/Morehead, NC

Current Version | Previous Version | Text Only | Print | Product List | Glossary Off
Versions: 1 2 3 4 5 6 7 8 9 10 11 12 13 14 15 16 17 18 19 20 21 22 23 24 25 26 27 28 29 30 31 32 33 34 35 36 37 38 39 40 41 42 43 44 45 46 47 48 49 50
000 ASUS42 KMHX 160725 RWRMHX WEATHER ROUNDUP FOR EASTERN NORTH CAROLINA NATIONAL WEATHER SERVICE NEWPORT/MOREHEAD CITY NC 300 AM EDT MON OCT 16 2017 NOTE: "FAIR" INDICATES FEW OR NO CLOUDS BELOW 12,000 FEET WITH NO SIGNIFICANT WEATHER AND/OR OBSTRUCTIONS TO VISIBILITY NCZ015>017-031-032-045>047-102-103-160800- NORTH COAST CITY SKY/WX TMP DP RH WIND PRES REMARKS EDENTON PTCLDY 71 69 92 CALM 29.98F ELIZABETH CITY CLEAR 70 70 100 SW10 29.96F KITTY HAWK SUNNY 70 70 100 CALM 29.95F MANTEO CLEAR N/A N/A N/A SW10 29.96F $$ NCZ045>047-081-094-103-104-160800- CENTRAL COAST CITY SKY/WX TMP DP RH WIND PRES REMARKS FRISCO CLEAR 77 75 93 SW10G17 29.98F $$ NCZ095-097-098-100-101-160800- SOUTHERN COAST CITY SKY/WX TMP DP RH WIND PRES REMARKS BEAUFORT MOCLDY 75 74 96 SW6 29.98F CEDAR ISLAND NOT AVBL JACKSONVILLE MOCLDY 68 68 100 W5 29.98F PINEY ISLAND FOG N/A N/A N/A S6 29.98F VSB 1/2 WILMINGTON CLEAR 70 69 97 S3 29.99F $$ NCZ011>013-027>030-043-044-078>080-089-090>093-098-160800- COASTAL PLAIN CITY SKY/WX TMP DP RH WIND PRES REMARKS AHOSKIE CLEAR 65 64 95 CALM 29.96F CLINTON CLEAR 64 64 100 CALM 29.99F ELIZABETHTOWN NOT AVBL GOLDSBORO CLEAR N/A N/A N/A SW3 29.98F GREENVILLE CLEAR 66 66 100 SW3 30.00F HAVELOCK MOCLDY 70 70 100 S5 29.98F FOG KENANSVILLE CLEAR 63 63 100 CALM 29.99F FOG KINSTON CLEAR 65 65 98 SW3 29.99F FOG NEW BERN MOCLDY 69 69 100 SW5 29.98F FOG RICHLANDS CLOUDY 66 66 100 CALM 30.00S FOG ROCKY MOUNT CLEAR 67 66 97 S6 29.98F WASHINGTON CLEAR 66 65 96 W3 29.98F WHITEVILLE CLEAR 65 64 97 CALM 30.00S FOG $$ AMZ130-135-150-152-154-156-158-170-250-252-270-ANZ085-086-088-633-658-670-160800- MARINE OBSERVATIONS STATION/POSITION TIME TEMP WIND PRES WAVE SWELL AIR SEA DIR/SP/G HT/PER HT/PER (UTC) (F) (DEG/KT/KT) (MB) (FT/S) (FT/S) CHESAPEAKE LIGHT NOT AVBL 64 E VA BEACH 0650 72 71 220/ 16/ 17 1014.3 4/ 5 2/ 8 DUCK 0700 72 72 240/ 13/ 16 1014.2 2 E DUCK 0700 72 N/A 3/ 8 OREGON INLET 0700 75 75 210/ 12/ 14 1014.6 13E OREGON INLT 0648 73 N/A 3/ 8 2/ 8 HATTERAS CG 0700 76 78 210/ 10/ 12 1015.1 DIAMOND BUOY 0650 79 77 240/ 12/ 14 1015.2 3/ 8 3/ 8 CAPE LOOKOUT 0700 75 210/ 5/ 6 1015.1 BEAUFORT LAB 0700 75 72 260/ 2/ 4 1014.8 30 SE NEW RVR IN 0608 77 220/ 6/ 10 1015.9 30 SE NEW RVR IN NOT AVBL 27 SE WRIGHTSVLE 0608 77 78 180/ 8/ 10 1015.9 5 SE WRIGHTSVLE 0608 76 77 220/ 10/ 14 1015.8 225 S CAPE HAT 0650 78 80 140/ 6/ 8 1016.3 4/ 8 3/ 8 41 SE CHARLESTON 0710 80 82 180/ 10/ 12 1014.9 $$

USA.gov is the U.S. government's official web portal to all federal, state and local government web resources and services.